Carrowkeel, United Kingdom

4:19 AM GMT on February 23, 2017 (GMT +0000)
Eglinton

Weather History for EGAE - February, 2013

Change the Weather History Date:

Thursday, February 7, 2013

  Actual Average Record
Temperature  
Mean Temperature 39 °F -  
Max Temperature 41 °F 45 °F 57 °F (2008)
Min Temperature 37 °F 38 °F 24 °F (2007)
Degree Days  
Heating Degree Days 26    
Moisture  
Dew Point 37 °F    
Average Humidity 91    
Maximum Humidity 93    
Minimum Humidity 87    
Precipitation  
Precipitation 0.00 in - - ()
Sea Level Pressure  
Sea Level Pressure 30.05 in    
Wind  
Wind Speed 7 mph ()    
Max Wind Speed 13 mph    
Max Gust Speed -    
Visibility 5.7 miles    
Events Rain    
Averages and records for this station are not official NWS values.
T = Trace of Precipitation, MM = Missing Value Source: Averaged Metar Reports

Daily Weather History Graph

Daily Weather History Graph

Search for Another Location

Airport or City:

Trip Planner

Search our weather history database for the weather conditions in past years. The results will help you decide how hot, cold, wet, or windy it might be!

Date:

Astronomy

Feb. 07, 2013 Rise Set
Actual Time 8:07 AM GMT 5:18 PM GMT
Civil Twilight 7:28 AM GMT 5:57 PM GMT
Nautical Twilight 6:45 AM GMT 6:40 PM GMT
Astronomical Twilight 6:03 AM GMT 7:22 PM GMT
Moon 5:53 AM GMT (2/7) 2:10 PM GMT (2/7)
Length of Visible Light 10h 28m
Length of Day
9h 10m
Waning Crescent, 10% of the Moon is Illuminated
Feb 7
Waning Crescent
Feb 10
New
Feb 17
First Quarter
Feb 25
Full
Mar 4
Last Quarter

Hourly Weather History & Observations

Time (GMT) Temp. Windchill Dew Point Humidity Pressure Visibility Wind Dir Wind Speed Gust Speed Precip Events Conditions
8:20 AM 39.2 °F 34.2 °F 35.6 °F 87% 30.09 in 6.2 mi WSW 6.9 mph - N/A   Partly Cloudy
8:50 AM 39.2 °F 33.0 °F 35.6 °F 87% 30.06 in 6.2 mi SSW 9.2 mph - N/A   Partly Cloudy
9:20 AM 37.4 °F 34.9 °F 35.6 °F 93% 30.06 in 6.2 mi WNW 3.5 mph - N/A Rain Light Rain
9:50 AM 39.2 °F 35.9 °F 35.6 °F 87% 30.04 in 5.0 mi West 4.6 mph - N/A Rain Light Rain
10:20 AM 39.2 °F 33.0 °F 37.4 °F 93% 30.04 in 4.3 mi SSW 9.2 mph - N/A Rain Light Rain
10:50 AM 39.2 °F 32.0 °F 37.4 °F 93% 30.04 in 5.6 mi SSW 11.5 mph - N/A Rain Light Rain
11:20 AM 39.2 °F 33.0 °F 37.4 °F 93% 30.01 in 6.2 mi South 9.2 mph - N/A Rain Light Rain
11:50 AM 39.2 °F 32.0 °F 35.6 °F 87% 29.98 in 6.2 mi South 11.5 mph - N/A Rain Light Rain
12:20 PM 39.2 °F 32.0 °F 37.4 °F 93% 29.98 in 4.3 mi ENE 11.5 mph - N/A Rain Light Rain
12:50 PM 39.2 °F 32.0 °F 37.4 °F 93% 30.01 in 5.0 mi ENE 11.5 mph - N/A Rain Light Rain
1:20 PM 39.2 °F 31.6 °F 37.4 °F 93% 30.01 in 5.6 mi ENE 12.7 mph - N/A Rain Light Rain
1:50 PM 39.2 °F 32.5 °F 37.4 °F 93% 30.04 in 6.2 mi NE 10.4 mph - N/A Rain Light Rain
2:20 PM 39.2 °F 34.2 °F 37.4 °F 93% 30.04 in 6.2 mi ENE 6.9 mph - N/A   Mostly Cloudy
2:50 PM 39.2 °F 35.9 °F 37.4 °F 93% 30.06 in 6.2 mi North 4.6 mph - N/A   Mostly Cloudy
3:20 PM 39.2 °F 35.9 °F 37.4 °F 93% 30.09 in 6.2 mi NNW 4.6 mph - N/A   Mostly Cloudy
3:50 PM 41.0 °F 38.0 °F 37.4 °F 87% 30.09 in 6.2 mi West 4.6 mph - N/A   Mostly Cloudy
4:20 PM 39.2 °F 34.2 °F 37.4 °F 93% 30.09 in 5.6 mi WSW 6.9 mph - N/A Rain Light Rain
4:50 PM 39.2 °F 33.6 °F 37.4 °F 93% 30.09 in 5.6 mi West 8.1 mph - N/A   Mostly Cloudy
5:20 PM 39.2 °F 32.0 °F 37.4 °F 93% 30.09 in 6.2 mi WSW 11.5 mph - N/A   Mostly Cloudy